TimeCST,TemperatureF,Dew PointF,Humidity,Sea Level PressureIn,VisibilityMPH,Wind Direction,Wind SpeedMPH,Gust SpeedMPH,PrecipitationIn,Events,Conditions,WindDirDegrees,DateUTC
12:52 AM,18.0,14.0,84,29.74,10.0,WSW,6.9,-,N/A,,Scattered Clouds,240,2014-01-11 06:52:00
1:52 AM,19.9,14.0,78,29.75,10.0,Variable,3.5,-,N/A,,Clear,0,2014-01-11 07:52:00
2:52 AM,18.0,12.0,78,29.77,10.0,WSW,4.6,-,N/A,,Clear,240,2014-01-11 08:52:00
3:52 AM,18.0,12.0,78,29.78,10.0,South,5.8,-,N/A,,Clear,190,2014-01-11 09:52:00
4:52 AM,16.0,10.9,81,29.80,10.0,SSW,5.8,-,N/A,,Clear,200,2014-01-11 10:52:00
5:52 AM,10.9,8.1,88,29.83,10.0,SW,8.1,-,N/A,,Clear,230,2014-01-11 11:52:00
6:52 AM,10.0,7.0,87,29.82,10.0,SW,5.8,-,N/A,,Clear,230,2014-01-11 12:52:00
7:52 AM,12.9,10.0,88,29.80,10.0,SW,4.6,-,N/A,,Clear,230,2014-01-11 13:52:00
8:52 AM,8.1,6.1,92,29.81,10.0,SW,4.6,-,N/A,,Clear,230,2014-01-11 14:52:00
9:52 AM,15.1,12.0,88,29.76,10.0,SSW,4.6,-,N/A,,Partly Cloudy,200,2014-01-11 15:52:00
10:52 AM,18.0,15.1,88,29.73,10.0,SSW,4.6,-,N/A,,Clear,200,2014-01-11 16:52:00
11:52 AM,23.0,17.1,78,29.67,10.0,South,4.6,-,N/A,,Clear,170,2014-01-11 17:52:00
12:52 PM,28.0,19.9,72,29.61,10.0,South,9.2,-,N/A,,Scattered Clouds,180,2014-01-11 18:52:00
1:52 PM,32.0,21.0,64,29.52,10.0,South,10.4,-,N/A,,Mostly Cloudy,170,2014-01-11 19:52:00
2:52 PM,33.1,21.9,64,29.45,10.0,SSE,10.4,-,N/A,,Clear,160,2014-01-11 20:52:00
3:52 PM,36.0,24.1,62,29.39,10.0,South,9.2,-,N/A,,Overcast,170,2014-01-11 21:52:00
4:52 PM,37.0,26.1,65,29.36,10.0,South,9.2,-,N/A,,Scattered Clouds,180,2014-01-11 22:52:00
5:52 PM,37.0,26.1,65,29.34,10.0,South,9.2,-,N/A,,Mostly Cloudy,170,2014-01-11 23:52:00
6:52 PM,37.0,26.1,65,29.30,10.0,South,10.4,-,N/A,,Overcast,170,2014-01-12 00:52:00
7:52 PM,37.0,27.0,67,29.26,10.0,South,8.1,-,N/A,,Clear,170,2014-01-12 01:52:00
8:52 PM,37.0,28.0,70,29.27,10.0,SW,9.2,-,N/A,,Mostly Cloudy,220,2014-01-12 02:52:00
9:52 PM,39.9,33.1,77,29.26,10.0,West,19.6,26.5,0.00,Rain,Light Rain,260,2014-01-12 03:52:00
10:52 PM,39.9,32.0,73,29.25,10.0,WSW,9.2,-,0.00,,Partly Cloudy,240,2014-01-12 04:52:00
11:52 PM,41.0,30.0,65,29.27,10.0,WSW,10.4,-,N/A,,Clear,250,2014-01-12 05:52:00